Location: Wild Duck Observatory
(38.2456°N, 85.2898°W)
Time: 06:46:57
(UTC-05:00)

Tiangong 1 - Visible Passes

Search period start: 20 November 2017 00:00
Search period end: 30 November 2017 00:00
Orbit: 285 x 309 km, 42.8° (Epoch: 20 November)

Date Brightness Start Highest point End Pass type
(mag) Time Alt. Az. Time Alt. Az. Time Alt. Az.
22 Nov 3.3 19:02:22 10° S 19:02:51 13° S 19:02:51 13° S visible
23 Nov 2.8 19:08:23 10° SW 19:09:32 21° SSW 19:09:32 21° SSW visible
24 Nov 2.9 19:14:48 10° WSW 19:16:02 24° WSW 19:16:02 24° WSW visible
25 Nov 3.4 19:21:23 10° W 19:22:22 20° W 19:22:22 20° W visible
26 Nov 1.2 17:53:08 10° SW 17:55:38 44° SSE 17:58:07 10° ENE visible
26 Nov 3.9 19:28:00 10° W 19:28:32 14° WNW 19:28:32 14° WNW visible
27 Nov 0.5 17:59:19 10° WSW 18:01:54 86° NNW 18:04:10 13° ENE visible
27 Nov 4.2 19:34:32 10° WNW 19:34:33 10° WNW 19:34:33 10° WNW visible
28 Nov 1.1 18:05:36 10° W 18:08:08 47° NNW 18:10:04 15° ENE visible
29 Nov 1.6 18:11:54 10° WNW 18:14:18 33° N 18:15:50 17° NE visible
